轨道通信卫星FM113星 (ORBCOMM FM113)

导读

ORBCOMM FM 113是ORBCOMM卫星星座的一员,由ORB于2015年12月22日发射入轨。该卫星运行在低地球轨道,属于ORBCOMM的M2M与物联网通信系统,依托窄带VHF/UHF频段,为全球用户提供低成本机器对机器数据传输服务,在物流跟踪、远程设备监测等领域发挥作用,是全球低轨物联网卫星网络的重要组成节点。

基本信息
目录编号:
41185
目录名称:
ORBCOMM FM 113
国际标识:
2015-081G
轨道中心:
EARTH
卫星名称:
轨道通信卫星FM113星
卫星全名:
轨道通信卫星FM113星 (ORBCOMM FM113)
卫星状态:
在轨 (已飞行3829 天)
发射日期:
2015-12-22 UTC
国别 :
(ORB)
星等 :
--
轨道信息
数据来源 国际轨道数据
星历时间: 2026-06-16T08:33:56+0800
16小时前
查看轨道信息
半长轴: 7075.003km
偏心率: 0.0002214
轨道倾角: 47.001°
近地点辐角 220.005°
升交点赤经 276.125°
平近点角 140.067°
近地点: 695.299km
远地点: 698.433km
周期: 98.707分钟
每日圈数: 14.588575
详细信息
固有亮度:
8
最大亮度:
6.7
平衡模式:
三轴稳定
覆盖范围:
全球
运营商:
轨道通信公司
运营商所在国:
美国
使用方式:
暂无
卫星简介
轨道通信FM(Orbcomm FM)是一系列低地球轨道通信卫星,由美国卫星通信公司 Orbcomm运营。 截至2015年12月,已有63颗此类卫星绕地球运行。该卫星仍在工作。
2D轨道图
3D轨道图
轨道高度分析图
轨道倾角分析图
轨道综合分析图
查看轨道综合分析图